[[{"header":{"parameterUnit":"m.s-1","parameterCategory":1,"la1":30.2991,"la2":30.254,"lo1":-89.0895,"lo2":-89.0444,"dy":0.0017,"dx":0.0017,"nx":28,"ny":28,"refTime":"2025-08-24T09:00:00:Z","depth":0,"parameterNumber":2,"parameterNumberName":"U-component_of_WINDS"},"data":[0,0,0,0,0,0,0,0,0,0,0,0,0,0,0,0,0,0,0,0,0,0,0,0,0,0,0,0,0,0,0,0,0,0,0,0,0,0,0,0,0,0,0,0,0,0,0,0,0,0,0,0,0,0,0,0,0,0,-1.0138,-1.0138,0,-1.0061,-1.006,-1.0059,-0.997,-0.9969,-0.9967,-0.9966,-0.9888,-0.9887,-0.9886,0,0,0,0,0,0,0,0,0,0,0,0,0,-1.0212,-1.0211,-1.0139,-1.0138,-1.0137,-1.0061,-1.006,-1.0059,-0.997,-0.9969,-0.9967,-0.9966,-0.9888,-0.9887,-0.9886,0,0,0,0,0,0,0,0,0,0,0,0,0,-1.0162,-1.0211,-1.0139,-1.0083,-1.0078,-1.0061,-1.006,-1.0059,-0.9971,-0.9969,-0.9967,-0.9965,-0.9888,-0.9887,-0.9886,-0.9918,0,0,-0.9882,-0.9881,0,0,0,0,0,0,0,0,-1.0165,-1.0159,-1.0092,-1.0087,-1.0081,-1.0023,-1.0057,-1.0011,-0.9971,-1.0011,-0.9966,-0.9964,-0.9934,-0.9929,-0.9919,-0.9914,-0.9911,-0.9882,-0.9881,-0.988,-0.988,0,0,0,0,0,0,0,-1.0168,-1.0162,-1.0108,-1.0092,-1.0084,-1.0063,-1.0053,-1.0048,-0.9985,-1.0008,-1.0001,-0.9993,-0.9931,-0.992,-0.9916,-0.991,-0.9882,-0.988,-0.988,-0.9879,-0.9928,-0.993,0,0,0,0,0,0,-1.018,-1.0165,-1.011,-1.0105,-1.0119,-1.0063,-1.0053,-1.0044,-0.9985,-0.9974,-0.9995,-0.9989,-0.9924,-0.9918,-0.9913,-0.9948,-0.988,-0.9879,-0.9878,-0.9926,-0.9929,-0.9931,0,0,0,0,0,0,-1.0182,-1.0176,-1.0113,-1.0134,-1.0124,-1.0064,-1.0054,-1.0043,-1.0033,-0.9975,-0.9964,-0.9996,-0.9922,-0.9915,-0.9917,-0.9944,-0.9879,-0.9877,-0.9924,-0.9927,-0.993,-1.0016,0,0,0,0,0,0,-1.0184,-1.0177,-1.0188,-1.0134,-1.0123,-1.0119,-1.0056,-1.0043,-1.0031,-1.0022,-0.9973,-0.9963,-0.992,-0.992,-0.9916,-0.9941,-0.9876,-0.9921,-0.9925,-0.9929,-1.0011,-1.0022,-1.0032,0,0,0,0,0,-1.0187,-1.0216,-1.0189,-1.0183,-1.0136,-1.012,-1.0114,-1.0064,-1.0033,-1.0044,-1.0007,-0.9964,-0.9942,-0.9921,-0.9916,-0.9941,-0.9919,-0.9924,-0.9928,-1.0006,-1.002,-1.0031,0,0,0,0,0,0,-1.0274,-1.0208,-1.0177,-1.0189,-1.0161,-1.0105,-1.0118,-1.0079,-1.0059,-1.0053,-0.9991,-0.9981,-0.9991,-0.9966,-0.9944,-0.9969,-0.9924,-0.9928,-0.9985,-0.9997,-1.0008,-1.0014,-0.9875,0,0,0,0,0,-1.0295,-1.0287,-1.0229,-1.0246,-1.0233,-1.0178,-1.0169,-1.0133,-1.0101,-1.0089,-1.0052,-1.0024,-1.001,-1.0002,-0.9986,-1.0007,-0.9995,-1.0022,-1.0032,-1.0041,-1.0045,-1.0055,-1.0066,-0.9946,-0.9946,-0.9946,0,0,-1.0337,-1.03,-1.0299,-1.0262,-1.0236,-1.023,-1.0169,-1.0165,-1.016,-1.0089,-1.0089,-1.0061,-1.0025,-1.0037,-1.004,-1.0016,-1.0075,-1.0047,-1.0054,-1.0053,-1.0061,-1.0072,-1.0082,-0.9949,-0.9949,-0.9948,0,0,-1.0411,-1.0382,-1.0392,-1.0368,-1.0329,-1.0292,-1.0295,-1.0245,-1.0224,-1.0223,-1.017,-1.0164,-1.0141,-1.0118,-1.0103,-1.017,-1.013,-1.0167,-1.0221,-1.0231,-1.0241,-1.0249,-1.0273,-1.0283,-1.0171,-1.0171,-1.0171,0,-1.0469,-1.0457,-1.0403,-1.0402,-1.0388,-1.0324,-1.0334,-1.0313,-1.0272,-1.0264,-1.0237,-1.0208,-1.0179,-1.0186,-1.0202,-1.0192,-1.0194,-1.0172,-1.0244,-1.0251,-1.0258,-1.0281,-1.029,-1.0176,-1.0176,-1.0175,-1.0175,0,-1.053,-1.0523,-1.0536,-1.0498,-1.0485,-1.0491,-1.0438,-1.0432,-1.0397,-1.0364,-1.0364,-1.0327,-1.0304,-1.0302,-1.0268,-1.0304,-1.029,-1.0255,-1.0208,-1.0275,-1.0295,-1.0303,-1.0183,-1.0181,-1.018,-1.0179,0,0,-1.0656,-1.0588,-1.0594,-1.0576,-1.0529,-1.0523,-1.0526,-1.0502,-1.0499,-1.0473,-1.0474,-1.0457,-1.0424,-1.0408,-1.0371,-1.038,-1.0436,-1.0343,-1.0341,-1.0362,-1.0474,-1.0501,-1.0512,-1.0409,-1.0411,-1.0412,-1.0477,0,-1.0722,-1.0723,-1.0674,-1.0689,-1.0682,-1.0621,-1.0624,-1.0596,-1.0565,-1.0555,-1.0521,-1.051,-1.0467,-1.0457,-1.0464,-1.0428,-1.0458,-1.0423,-1.0411,-1.0411,-1.0422,-1.0523,-1.0551,-1.0614,-1.0485,-1.0486,-1.0487,0,-1.0799,-1.0778,-1.0791,-1.0744,-1.074,-1.0743,-1.0718,-1.0709,-1.0677,-1.0654,-1.0636,-1.0594,-1.0594,-1.0551,-1.0551,-1.0528,-1.052,-1.0502,-1.0504,-1.0501,-1.0453,-1.0523,-1.0633,-1.0643,-1.0499,-1.0498,-1.0497,0,-1.0891,-1.0865,-1.087,-1.0856,-1.0802,-1.0806,-1.0783,-1.0749,-1.0738,-1.0716,-1.0709,-1.0688,-1.0677,-1.0662,-1.0616,-1.0588,-1.0621,-1.0574,-1.0603,-1.0604,-1.0612,-1.0613,-1.0724,-1.0607,-1.0607,-1.0607,-1.0607,0,-1.0969,-1.098,-1.091,-1.0913,-1.0924,-1.0869,-1.0881,-1.0853,-1.0823,-1.082,-1.0766,-1.0765,-1.0704,-1.0696,-1.0659,-1.0665,-1.0661,-1.0642,-1.0633,-1.0647,-1.065,-1.0642,-1.0636,-1.061,-1.0609,-1.0609,-1.0608,0,-1.1073,-1.1027,-1.1028,-1.0977,-1.0964,-1.0974,-1.093,-1.0932,-1.0898,-1.0895,-1.0891,-1.0838,-1.0826,-1.0779,-1.0755,-1.0731,-1.0749,-1.0729,-1.076,-1.0753,-1.0785,-1.0783,-1.0895,-1.0907,-1.0784,-1.0785,-1.0786,0,-1.1127,-1.1134,-1.1083,-1.1077,-1.1057,-1.1048,-1.1037,-1.0984,-1.0974,-1.0938,-1.0944,-1.0928,-1.0912,-1.0895,-1.0855,-1.0837,-1.0817,-1.0858,-1.0814,-1.0829,-1.0818,-1.0819,-1.082,-1.0867,-1.0869,-1.087,-1.0871,0,-1.1227,-1.1204,-1.119,-1.1168,-1.1156,-1.1137,-1.1114,-1.1112,-1.1052,-1.1045,-1.1032,-1.102,-1.0996,-1.098,-1.0956,-1.0933,-1.0893,-1.0886,-1.0891,-1.0906,-1.0924,-1.0915,-1.0786,-1.0883,-1.0882,-1.0881,-1.088,-1.088,-1.1307,-1.1311,-1.1276,-1.1263,-1.124,-1.122,-1.1219,-1.1185,-1.1173,-1.1149,-1.1118,-1.111,-1.1078,-1.104,-1.1021,-1.1014,-1.0991,-1.1,-1.1002,-1.1005,-1.1012,-1.0925,-1.1009,-1.1009,-1.1008,-1.1008,-1.1008,0,-1.1405,-1.138,-1.1368,-1.1338,-1.1328,-1.129,-1.1263,-1.1257,-1.125,-1.1223,-1.1209,-1.1195,-1.118,-1.1139,-1.112,-1.1122,-1.1103,-1.1119,-1.1118,-1.1114,-1.1033,-1.103,-1.1135,-1.1135,-1.1135,-1.1135,-1.1135,-1.1135,-1.1455,-1.1459,-1.1432,-1.1426,-1.14,-1.1391,-1.1379,-1.136,-1.1339,-1.1325,-1.1313,-1.1286,-1.1254,-1.1232,-1.1217,-1.1206,-1.1202,-1.1224,-1.1206,-1.1132,-1.112,-1.1108,-1.1105,-1.1223,-1.1223,-1.1287,-1.1288,-1.1289]},{"header":{"parameterUnit":"m.s-1","parameterCategory":1,"la1":30.2991,"la2":30.254,"lo1":-89.0895,"lo2":-89.0444,"dy":0.0017,"dx":0.0017,"nx":28,"ny":28,"refTime":"2025-08-24T09:00:00:Z","depth":0,"parameterNumber":3,"parameterNumberName":"V-component_of_WINDS"},"data":[0,0,0,0,0,0,0,0,0,0,0,0,0,0,0,0,0,0,0,0,0,0,0,0,0,0,0,0,0,0,0,0,0,0,0,0,0,0,0,0,0,0,0,0,0,0,0,0,0,0,0,0,0,0,0,0,0,0,3.1977,3.1977,0,3.1991,3.1992,3.1992,3.1991,3.1991,3.1991,3.199,3.2003,3.2004,3.2004,0,0,0,0,0,0,0,0,0,0,0,0,0,3.1948,3.1949,3.1977,3.1977,3.1977,3.1991,3.1992,3.1992,3.1991,3.1991,3.199,3.199,3.2003,3.2004,3.2005,0,0,0,0,0,0,0,0,0,0,0,0,0,3.1961,3.1949,3.1977,3.1979,3.1979,3.1991,3.1992,3.1992,3.1991,3.1991,3.199,3.199,3.2003,3.2004,3.2005,3.2016,0,0,3.2007,3.2007,0,0,0,0,0,0,0,0,3.1961,3.1962,3.1978,3.1979,3.1979,3.1989,3.1986,3.2,3.1991,3.1986,3.199,3.199,3.1999,3.2,3.2003,3.2016,3.2017,3.2007,3.2008,3.2008,3.2008,0,0,0,0,0,0,0,3.196,3.1962,3.1983,3.1979,3.1979,3.1979,3.198,3.1989,3.1994,3.1987,3.1987,3.1989,3.1999,3.2002,3.2004,3.2017,3.2007,3.2008,3.2008,3.2009,3.2041,3.2041,0,0,0,0,0,0,3.1959,3.1961,3.1982,3.1983,3.1969,3.1979,3.1981,3.1986,3.1994,3.1995,3.1989,3.1988,3.2001,3.2003,3.2004,3.2018,3.2008,3.2009,3.2009,3.2041,3.2041,3.2041,0,0,0,0,0,0,3.1958,3.1961,3.1982,3.1972,3.1975,3.198,3.1986,3.1987,3.199,3.1996,3.1996,3.1992,3.2001,3.2003,3.2013,3.2018,3.2009,3.201,3.204,3.2041,3.2041,3.2045,0,0,0,0,0,0,3.1957,3.196,3.1965,3.1972,3.1975,3.1991,3.1986,3.1987,3.1992,3.1991,3.1998,3.1999,3.2001,3.2012,3.2014,3.2019,3.201,3.204,3.204,3.2041,3.2045,3.2046,3.2047,0,0,0,0,0,3.1956,3.1965,3.1965,3.1967,3.1981,3.1991,3.1993,3.1995,3.1992,3.1996,3.2,3.1999,3.2018,3.2013,3.2015,3.2021,3.2039,3.204,3.2041,3.2044,3.2046,3.2047,0,0,0,0,0,0,3.1956,3.1966,3.1966,3.1977,3.1983,3.1991,3.1996,3.1996,3.2003,3.2002,3.2005,3.2006,3.2017,3.202,3.2015,3.2033,3.2028,3.2029,3.203,3.2031,3.2032,3.2031,3.2011,0,0,0,0,0,3.1958,3.1966,3.1973,3.1982,3.1986,3.1991,3.1995,3.1997,3.2003,3.2005,3.201,3.2015,3.2023,3.2027,3.2034,3.2046,3.2047,3.2051,3.2052,3.2053,3.2054,3.206,3.2062,3.2044,3.2044,3.2044,0,0,3.1961,3.1967,3.1971,3.1983,3.1988,3.1996,3.1993,3.2001,3.2007,3.2006,3.2016,3.202,3.2027,3.2038,3.2043,3.2041,3.2059,3.2054,3.2055,3.2055,3.2061,3.2063,3.2065,3.2045,3.2045,3.2045,0,0,3.197,3.1975,3.1984,3.1989,3.1998,3.2001,3.2003,3.2011,3.2014,3.2024,3.2024,3.2031,3.2044,3.2049,3.2053,3.2066,3.2065,3.2068,3.2073,3.208,3.2081,3.2083,3.2087,3.2089,3.2069,3.2069,3.2069,0,3.1972,3.1984,3.1988,3.1997,3.2002,3.2003,3.2012,3.2017,3.2027,3.203,3.2028,3.2044,3.2049,3.2061,3.2065,3.2068,3.207,3.2067,3.2081,3.2082,3.2084,3.2088,3.209,3.2069,3.2069,3.2069,3.2069,0,3.1987,3.1995,3.2001,3.2012,3.2018,3.2026,3.2031,3.2037,3.2039,3.2042,3.2053,3.2059,3.2067,3.2071,3.2072,3.2084,3.2082,3.2081,3.2076,3.2085,3.209,3.2091,3.207,3.207,3.2069,3.2069,0,0,3.1995,3.2009,3.2011,3.2016,3.2026,3.2032,3.2041,3.205,3.2055,3.2062,3.207,3.2081,3.208,3.2085,3.2087,3.2093,3.2103,3.209,3.209,3.2092,3.2116,3.2117,3.2119,3.2103,3.2103,3.2103,3.2115,0,3.2005,3.2021,3.2026,3.204,3.2048,3.205,3.2058,3.2065,3.2069,3.2076,3.2081,3.2089,3.2087,3.209,3.2096,3.21,3.2107,3.2099,3.2109,3.2109,3.2107,3.2121,3.2121,3.2133,3.2117,3.2117,3.2118,0,3.2018,3.2027,3.2042,3.2052,3.2055,3.2062,3.2071,3.2079,3.2087,3.2089,3.2096,3.2097,3.2107,3.2103,3.2116,3.211,3.2115,3.2118,3.2118,3.2118,3.2113,3.2121,3.2136,3.2138,3.212,3.212,3.212,0,3.2022,3.2038,3.2049,3.2053,3.2065,3.207,3.2075,3.2083,3.2088,3.2097,3.21,3.2109,3.2114,3.2121,3.2125,3.2121,3.2137,3.2133,3.2139,3.2139,3.2142,3.2141,3.2157,3.2146,3.2146,3.2146,3.2146,0,3.2033,3.2042,3.2051,3.2058,3.2068,3.2074,3.2084,3.2089,3.2096,3.2104,3.2106,3.2113,3.2118,3.2126,3.2129,3.214,3.2142,3.2144,3.2145,3.2143,3.2143,3.2146,3.2145,3.2146,3.2146,3.2146,3.2146,0,3.2039,3.2045,3.2058,3.2069,3.2072,3.2079,3.2088,3.2094,3.2099,3.2109,3.2111,3.2119,3.2128,3.2133,3.2145,3.2147,3.2159,3.2159,3.2156,3.2156,3.2162,3.2161,3.2179,3.2182,3.2169,3.2169,3.2169,0,3.2044,3.2052,3.2064,3.207,3.2075,3.2084,3.209,3.2096,3.2102,3.2113,3.2118,3.2128,3.2136,3.2151,3.2157,3.2166,3.2166,3.2172,3.2168,3.2166,3.2166,3.2165,3.2166,3.2173,3.2173,3.2173,3.2173,0,3.2054,3.2058,3.2067,3.2077,3.2085,3.2093,3.2101,3.2106,3.2113,3.212,3.213,3.2136,3.2149,3.2158,3.2168,3.2173,3.2174,3.2175,3.2176,3.2175,3.2173,3.2174,3.2158,3.2174,3.2174,3.2174,3.2174,3.2174,3.206,3.2067,3.2077,3.2087,3.2094,3.2102,3.2109,3.2116,3.2124,3.2135,3.2139,3.2149,3.2158,3.2171,3.2176,3.2185,3.2183,3.2186,3.2186,3.2187,3.2187,3.2172,3.2186,3.2186,3.2186,3.2186,3.2186,0,3.207,3.2077,3.2086,3.2098,3.2106,3.2108,3.2118,3.2124,3.2134,3.2142,3.215,3.2162,3.2172,3.2179,3.2189,3.2194,3.2195,3.2197,3.2196,3.2197,3.2188,3.2185,3.2196,3.2196,3.2196,3.2196,3.2196,3.2196,3.2076,3.2087,3.2092,3.2108,3.2114,3.2125,3.2131,3.2138,3.2145,3.2158,3.2167,3.2172,3.218,3.2191,3.22,3.2202,3.2205,3.2206,3.2208,3.2199,3.2198,3.2197,3.2194,3.2207,3.2207,3.2217,3.2217,3.2217]}]]